Temp_Advection
nan nan nan nan nan nan nan nan nan nan nan nan nan nan nan nan nan nan nan nan nan nan nan nan nan nan nan nan nan nan nan nan nan nan nan nan nan nan nan nan nan nan nan nan
nan -0 -0 -0 -0 0 1 0 -0 0 0 -0 -0 -0 -0 -0 -0 -0 -0 0 0 0 0 0 0 0 0 -0 -0 0 -0 0 -0 -0 -0 -0 0 0 -0 -0 -0 0 -0 nan
nan -0 -0 -0 -0 -0 1 0 0 0 0 -0 -0 -0 -0 -0 -0 -0 -0 -0 -0 -0 0 0 0 -0 0 -0 -0 -0 -0 -0 0 0 0 0 -0 0 0 0 -0 -0 -1 nan
nan -0 -0 -0 -0 -0 1 0 -0 0 0 -0 -0 -0 -0 -0 -0 -1 0 0 -0 0 0 0 -0 -0 -0 -0 0 0 0 0 0 0 0 0 0 0 0 0 -0 -0 -0 nan
nan -0 -0 -0 -0 -0 0 0 0 0 -0 -0 0 -0 -0 -0 -0 -0 -0 -0 0 0 -0 -0 -0 -0 -0 0 0 0 0 0 -0 -0 -1 0 0 0 -0 -1 -0 -0 0 nan
nan -0 -0 -0 0 0 -0 0 -0 0 -0 0 0 -0 -0 -0 -0 -0 -0 0 0 0 -0 -1 -0 -0 0 0 0 0 0 0 0 -0 -0 -0 0 -0 -1 -0 -0 0 -0 nan
nan -0 -0 -0 0 0 -0 -0 0 -0 -0 -0 -1 -0 -0 0 0 -0 -0 0 -0 -0 -0 0 0 0 0 0 0 0 0 0 0 -0 -0 0 -1 -0 -0 0 -0 -0 -0 nan
nan -0 -0 -0 -0 0 0 -0 -0 -0 -0 -0 -0 -0 -0 0 1 -0 -1 -1 -0 0 0 -0 0 -0 -0 0 -0 0 0 -0 -0 -0 -0 -0 -0 -0 -0 -0 -0 -0 0 nan
nan -0 -0 -0 -0 -0 0 -0 -1 -0 -0 -0 -1 0 1 0 0 -0 -1 -0 0 0 -0 0 0 -0 -0 -0 0 -0 0 0 -0 -0 -0 -0 -0 -0 -0 -0 0 -0 -0 nan
nan -0 -0 -0 -0 -0 0 -0 -0 0 -0 -1 0 0 -0 -0 -0 0 -0 1 1 1 -0 0 0 -0 0 0 -0 0 -0 -0 -0 -0 -0 -0 -1 -1 0 0 -0 -0 -0 nan
nan -0 -0 -0 -0 -0 0 -0 -0 -0 -0 -1 -1 -0 -0 -0 -0 -0 0 -0 0 -0 0 0 0 0 0 -0 -0 0 -0 -0 -0 0 -0 -0 -0 -0 0 -0 -0 -0 0 nan
nan -0 -0 -0 -0 -0 0 -0 -1 0 -0 -0 -0 -1 -0 -0 -0 -1 -0 0 -0 -0 -0 -0 0 -0 -0 -0 -0 0 0 -0 0 0 -0 -1 -1 -0 -0 -0 -0 -0 -0 nan
nan -0 -0 -0 -0 -0 0 -0 -0 0 -0 -1 -1 -0 0 0 0 0 -0 -0 -0 -0 -0 -0 -0 -0 -0 0 0 -0 -0 -0 0 0 -0 -0 -1 -0 -1 -1 -1 -0 -0 nan
nan -1 -1 -0 -0 -0 -0 -0 -0 -0 -0 -0 -1 0 0 0 0 0 0 -0 -0 -0 0 0 0 0 0 0 0 0 -0 0 0 -0 -0 -0 -0 0 0 -1 -1 -1 -0 nan
nan -1 -1 -0 -0 -0 -0 -0 -1 -1 -0 -0 0 0 -0 0 0 0 0 0 0 -0 -0 0 0 -0 0 0 -0 -0 -0 0 -0 -1 -1 -0 -0 0 1 -0 -1 -0 0 nan
nan -0 -0 -0 -0 0 -0 -1 -1 -0 0 -0 -0 0 0 0 0 0 0 0 0 -0 -0 -0 -0 -0 -0 0 -0 -0 -1 -1 -1 -1 -0 -0 -0 -1 0 1 -0 0 0 nan
nan -0 -0 -0 0 0 -1 -0 -0 0 0 -0 -0 -0 0 0 0 0 0 0 0 0 0 0 -0 -0 0 0 -1 -0 -1 0 0 0 0 -0 -1 -1 -1 0 0 0 0 nan
nan -0 -0 -0 0 -0 -1 0 0 -0 -0 0 -0 -0 0 0 0 0 0 0 0 0 0 0 0 0 0 -0 -1 -1 0 0 -1 -1 -0 0 -0 -0 -0 -0 0 0 0 nan
nan 0 -0 -0 -0 -0 -0 0 0 -0 -0 -0 -0 -0 0 0 0 0 0 0 0 0 0 0 -0 -0 -0 -0 -0 -1 -1 -0 -1 0 0 0 -0 -0 0 0 0 0 0 nan
nan -0 -0 0 -0 0 -0 0 0 0 -0 -0 0 -0 -0 0 -0 -0 0 -0 -0 -0 -0 0 -0 -0 -1 -1 -1 0 0 -1 0 0 -1 -0 0 1 1 1 1 1 0 nan
nan -0 0 0 -0 0 -0 -0 -0 0 0 0 0 0 -0 -0 -0 -0 -0 -0 -0 -0 0 -0 -0 0 -0 -1 -1 -0 1 1 -0 -1 -0 0 0 0 0 0 0 -0 0 nan
nan -1 -0 0 -0 -0 -0 -0 0 -0 -0 -0 0 -0 -1 -0 -0 -0 -0 -0 -0 0 -0 -0 0 -0 -0 -0 -0 0 0 -0 -0 -0 0 -0 -0 -0 -0 -1 -0 0 0 nan
nan -0 -0 -0 -0 -0 -0 0 0 -0 -0 -0 -0 -0 0 -0 0 -0 -0 -0 0 0 -0 -0 0 -0 -0 0 0 0 0 0 -0 0 0 0 -0 0 0 -0 0 0 0 nan
nan -0 -0 0 0 -0 -0 -0 -0 -0 -0 -0 -0 -0 0 0 0 0 -0 0 -0 0 -0 0 0 -0 -0 0 0 0 -0 0 0 0 0 0 0 1 1 1 1 1 0 nan
nan -0 -0 -0 0 0 -0 -0 -0 0 -0 -0 0 -0 -0 -0 -0 -0 -0 0 0 0 0 0 0 -0 0 0 0 0 0 0 0 0 0 0 1 0 0 1 1 0 0 nan
nan -0 -0 0 0 0 0 -0 -0 0 -0 0 -0 -0 -0 -0 -0 -0 0 0 0 0 0 0 0 -0 0 0 0 0 0 0 0 0 0 0 0 0 0 0 0 0 0 nan
nan nan nan nan nan nan nan nan nan nan nan nan nan nan nan nan nan nan nan nan nan nan nan nan nan nan nan nan nan nan nan nan nan nan nan nan nan nan nan nan nan nan nan nan
Wind_Speed
25 22 22 21 22 20 27 14 4 13 23 9 7 7 4 5 10 16 7 3 6 4 3 2 2 4 1 5 2 4 2 4 3 6 3 3 2 3 3 4 3 3 3 8
20 26 22 21 22 22 33 15 14 15 30 5 7 4 5 11 3 4 3 4 5 5 5 2 4 2 2 6 1 4 4 2 2 4 4 4 5 2 2 1 2 4 3 6
19 19 25 22 22 20 34 8 4 9 26 13 8 5 9 10 11 18 15 10 10 4 4 3 4 4 2 2 2 2 1 4 6 6 5 3 4 4 1 4 2 4 12 11
20 18 18 25 22 22 35 17 5 8 7 14 12 9 4 9 9 15 14 5 15 7 5 3 4 3 2 2 3 4 3 5 5 5 6 4 7 9 8 8 12 10 16 14
22 21 20 20 23 20 30 11 6 8 4 21 19 14 11 14 6 6 5 17 8 11 8 8 7 7 5 5 1 4 2 4 3 4 5 8 9 8 13 15 16 15 17 21
23 23 22 20 21 21 14 19 16 7 8 9 10 15 18 17 11 13 18 14 6 7 8 11 15 11 8 6 6 5 3 3 2 4 1 6 9 9 14 6 6 7 10 13
26 25 23 22 20 22 24 16 17 8 5 11 15 12 15 19 18 16 12 8 4 7 7 10 6 4 5 6 7 9 5 4 3 2 3 5 7 4 6 8 11 10 13 12
26 25 24 22 21 22 25 23 19 5 2 14 11 12 11 12 22 19 21 21 12 12 7 3 2 2 2 6 11 13 12 5 1 3 5 11 12 11 4 7 9 11 12 10
30 29 27 25 23 21 22 25 20 13 3 8 19 10 17 8 4 3 9 15 12 6 2 2 4 3 2 2 5 5 5 4 6 3 3 5 5 4 3 1 7 7 6 6
30 30 29 26 24 22 23 22 22 19 4 7 17 8 7 12 8 3 5 11 11 10 2 2 3 3 2 3 4 3 2 1 9 9 6 7 8 15 1 3 7 3 5 7
28 28 28 27 25 23 23 25 25 25 12 15 16 10 11 8 8 4 5 6 1 3 3 3 3 3 4 3 6 3 6 5 4 4 6 7 13 4 5 5 3 3 5 9
27 27 26 26 25 23 23 25 22 29 15 8 13 20 14 16 16 19 8 3 4 7 3 2 2 2 2 4 3 2 4 5 1 2 3 12 23 17 18 11 11 6 7 9
27 28 26 26 26 25 26 26 18 22 16 20 14 14 12 12 10 11 8 5 6 6 5 4 2 4 2 3 4 2 3 6 4 2 6 14 18 25 28 22 16 15 13 13
28 30 28 27 26 25 25 25 25 23 5 4 9 11 13 13 10 9 6 4 8 10 8 3 2 2 5 2 3 3 5 2 3 5 10 15 15 13 19 21 19 21 12 11
24 26 27 29 26 24 22 23 28 26 9 4 5 12 16 15 14 12 8 9 11 9 4 3 4 4 3 3 1 5 9 7 4 6 10 6 8 22 11 12 20 16 13 11
18 23 27 26 24 21 21 15 28 32 27 2 1 4 8 13 13 11 13 18 12 8 6 4 4 4 6 3 4 5 18 24 27 15 13 16 14 25 22 17 17 16 15 11
18 20 23 24 24 27 24 5 11 37 23 3 1 2 3 8 11 13 13 15 11 10 5 7 6 4 6 3 8 7 12 16 20 22 16 18 21 21 17 15 17 14 15 11
21 20 20 22 20 21 22 4 19 28 10 6 2 2 2 5 6 4 8 8 11 7 8 3 3 4 5 6 9 20 27 32 30 31 32 35 30 24 21 15 13 18 15 12
22 21 15 23 23 11 14 22 25 20 3 6 2 3 3 4 3 3 5 5 2 4 3 5 8 4 8 7 12 21 25 20 18 15 15 18 19 22 20 18 19 18 14 14
18 22 8 8 21 22 32 9 3 3 1 4 0 3 2 5 5 4 4 5 3 3 4 8 5 8 25 27 32 36 31 27 25 18 24 22 19 19 18 16 15 12 11 13
28 7 5 40 33 9 5 5 3 3 1 4 5 11 3 8 3 3 6 1 2 3 4 7 4 4 6 16 20 20 16 22 20 22 22 18 18 16 11 12 12 13 14 12
11 21 27 9 5 6 5 2 3 2 4 7 5 7 11 7 6 3 4 3 4 4 7 3 3 3 5 5 4 1 5 5 7 6 8 9 8 11 15 18 16 17 14 13
30 6 5 2 2 4 4 6 2 3 3 8 8 4 9 6 7 3 2 4 4 1 3 3 3 5 4 4 7 8 6 3 5 7 9 11 13 13 18 19 17 16 12 11
3 3 4 3 2 3 4 3 3 5 4 8 11 5 4 5 3 2 3 4 2 2 2 4 1 4 1 4 6 4 3 2 4 4 4 8 12 15 15 14 14 13 11 13
4 3 3 1 1 1 3 4 1 2 1 8 5 3 5 2 2 3 3 2 3 4 4 2 3 2 3 6 7 6 7 8 8 8 12 12 12 13 14 13 12 10 12 14
3 4 3 2 2 2 1 1 2 2 2 3 4 2 3 5 3 5 6 3 4 3 2 3 2 1 2 6 7 7 7 8 10 11 11 10 10 10 12 13 11 10 9 10
3 3 3 2 1 2 2 1 2 3 3 2 3 5 4 2 3 3 4 4 2 4 3 3 4 7 5 7 8 8 8 9 10 11 11 11 10 9 9 10 12 11 11 10
Wind_Direction
245 243 240 237 231 238 216 186 198 186 179 167 206 230 206 298 286 293 252 251 220 235 222 244 244 213 207 338 250 169 166 152 214 214 267 338 229 261 146 144 258 256 164 266
252 243 240 237 234 238 209 185 189 189 181 181 212 241 254 237 266 270 302 260 211 220 206 235 222 198 136 354 305 185 171 260 311 321 346 3 91 111 115 132 89 225 178 271
260 252 239 236 233 236 218 187 180 180 193 222 187 199 232 232 231 241 252 271 300 259 225 213 207 210 194 39 16 300 33 181 196 237 209 157 259 209 268 175 151 253 242 268
259 256 251 234 233 232 218 201 210 189 197 207 197 182 241 227 232 233 253 253 228 216 220 200 212 227 293 278 224 198 163 230 204 220 213 230 234 257 260 227 238 225 269 236
258 255 252 244 233 235 223 192 201 199 249 201 204 206 226 231 225 238 255 226 229 213 206 189 199 187 196 215 133 181 215 245 151 298 258 247 261 238 245 250 249 246 256 263
255 255 252 246 236 234 246 219 220 189 213 183 192 219 224 235 222 261 251 269 263 236 223 232 242 231 232 193 179 204 202 183 120 279 197 318 284 225 239 244 220 225 246 251
254 255 253 245 238 235 248 260 229 222 202 197 201 209 213 229 225 240 261 314 234 256 187 137 131 176 204 212 234 217 194 165 155 233 34 256 249 247 228 236 259 243 247 252
247 247 247 244 241 232 245 254 251 256 259 213 211 207 220 231 234 242 248 259 291 188 136 53 118 303 271 243 225 228 210 172 168 215 231 289 292 278 184 174 264 250 243 245
245 245 244 243 239 236 237 244 252 239 250 224 209 209 237 225 212 284 235 245 240 203 97 116 169 219 195 275 311 32 201 195 194 156 215 259 243 266 290 130 282 277 206 201
247 245 244 241 237 233 234 238 241 224 269 239 198 178 199 190 194 188 208 157 189 238 113 129 170 218 221 237 237 230 86 76 207 220 234 273 254 263 179 196 248 302 212 226
242 241 241 237 233 227 229 235 237 233 237 244 230 206 212 199 191 150 185 116 241 47 100 147 211 191 220 221 229 224 180 164 202 202 213 252 352 301 189 238 304 252 261 250
243 240 236 233 230 226 224 231 234 204 230 243 220 222 230 232 236 211 180 208 158 159 104 191 143 206 221 220 252 211 226 189 166 207 231 291 295 282 292 301 293 292 268 248
237 237 235 230 227 225 221 225 231 225 244 255 228 208 190 194 188 207 180 179 168 158 144 143 183 231 200 221 221 249 257 157 200 168 235 249 253 279 276 286 279 295 296 258
238 230 227 227 225 224 218 221 225 224 214 227 219 190 192 202 195 203 207 198 180 153 162 128 185 233 209 239 262 192 218 158 230 248 273 287 282 278 289 269 267 280 266 233
225 219 220 220 220 215 218 221 225 230 211 207 181 191 216 220 223 229 225 207 174 150 145 160 214 215 188 235 249 237 204 223 187 229 219 208 307 308 297 283 261 248 221 212
225 217 213 210 206 202 209 210 221 224 219 177 230 189 185 203 208 209 213 207 197 192 177 202 232 238 191 212 243 222 236 237 242 242 264 226 293 302 298 297 241 231 221 231
212 199 198 196 196 197 202 208 200 192 174 147 340 343 136 187 199 207 203 211 213 211 219 218 192 238 213 237 248 204 237 259 257 258 258 278 284 282 282 278 251 226 218 216
193 187 188 194 197 208 208 163 161 164 158 173 135 273 79 157 163 156 185 196 206 214 222 194 172 206 219 253 237 250 254 258 262 264 265 276 277 263 267 250 216 203 203 202
187 189 185 189 188 159 151 170 166 175 177 124 114 137 219 172 123 136 159 189 170 216 230 192 176 187 229 243 247 247 256 243 262 267 286 282 272 247 239 217 196 199 203 196
170 195 178 133 157 160 135 123 102 139 7 64 158 192 237 153 166 193 161 200 205 220 217 174 219 247 252 254 259 268 262 257 263 258 286 277 250 230 197 185 191 203 208 197
148 163 94 129 130 134 93 102 108 112 73 208 225 211 152 190 146 183 215 193 214 238 194 184 217 251 245 267 266 283 265 250 255 261 270 266 224 177 176 190 198 219 206 201
129 125 124 97 77 65 86 73 114 194 221 193 175 211 197 174 173 139 186 232 206 246 146 200 242 255 309 317 306 187 159 188 186 167 159 179 197 212 203 199 203 193 192 191
120 110 92 114 39 78 126 173 206 209 201 179 178 173 164 173 194 174 170 230 247 100 225 218 249 331 5 124 137 133 145 225 255 196 196 209 210 211 203 187 186 183 185 184
137 103 91 107 156 197 198 176 178 196 192 189 168 134 155 170 157 168 218 229 271 247 270 236 290 328 321 175 173 145 129 153 190 135 118 185 181 166 169 178 181 183 179 174
76 62 76 166 147 137 169 223 272 126 119 148 133 157 180 160 189 201 221 254 253 219 229 217 213 319 171 163 161 158 157 165 183 179 168 158 157 162 161 160 164 170 174 176
59 67 76 119 101 230 253 306 291 152 212 240 260 228 208 195 173 184 207 185 230 247 212 154 165 251 194 177 172 165 163 169 169 165 167 165 165 165 164 162 162 164 174 181
56 53 64 72 49 201 244 212 241 210 208 210 209 227 192 122 161 215 195 211 206 184 179 228 236 247 234 206 189 187 186 180 175 176 176 172 168 171 176 175 168 166 165 168
Height
1492 1494 1494 1496 1499 1502 1503 1503 1510 1505 1507 1515 1513 1509 1507 1503 1497 1495 1492 1489 1489 1488 1486 1484 1483 1482 1481 1482 1480 1481 1482 1492 1499 1486 1478 1481 1481 1484 1488 1508 1491 1494 1508 1488
1485 1487 1489 1491 1494 1496 1495 1495 1500 1502 1503 1505 1506 1503 1502 1500 1497 1493 1488 1487 1487 1485 1486 1493 1487 1481 1482 1481 1481 1482 1482 1494 1495 1489 1488 1483 1484 1486 1488 1490 1498 1494 1515 1491
1481 1482 1483 1486 1490 1492 1492 1494 1494 1493 1495 1493 1494 1499 1497 1494 1490 1490 1488 1489 1488 1486 1485 1484 1488 1484 1482 1482 1482 1481 1480 1487 1486 1496 1488 1489 1491 1486 1487 1489 1511 1499 1482 1477
1476 1477 1479 1481 1484 1488 1488 1485 1483 1483 1481 1482 1489 1494 1489 1488 1489 1484 1483 1482 1483 1485 1489 1484 1486 1483 1483 1482 1481 1481 1483 1487 1487 1484 1485 1486 1486 1485 1486 1489 1483 1488 1467 1472
1471 1472 1474 1476 1479 1482 1481 1476 1480 1478 1477 1477 1482 1486 1481 1484 1482 1483 1477 1476 1477 1477 1480 1480 1483 1482 1483 1482 1480 1481 1481 1484 1487 1504 1485 1483 1483 1483 1482 1476 1472 1469 1466 1461
1465 1466 1469 1471 1474 1476 1474 1470 1475 1471 1472 1472 1477 1473 1470 1472 1481 1478 1475 1476 1476 1473 1472 1472 1471 1473 1475 1475 1478 1480 1481 1482 1487 1481 1479 1479 1475 1473 1465 1461 1459 1459 1461 1451
1459 1460 1462 1465 1469 1471 1470 1469 1471 1471 1462 1467 1463 1466 1469 1471 1474 1473 1471 1473 1473 1470 1468 1469 1472 1473 1473 1473 1473 1475 1477 1480 1484 1489 1479 1492 1463 1456 1456 1457 1452 1449 1446 1442
1452 1454 1456 1458 1462 1465 1465 1466 1467 1464 1458 1459 1461 1462 1463 1465 1469 1470 1470 1469 1471 1469 1468 1476 1475 1478 1474 1470 1468 1465 1467 1475 1487 1483 1481 1466 1456 1446 1447 1452 1447 1438 1437 1435
1443 1446 1449 1452 1455 1459 1461 1461 1463 1463 1461 1455 1456 1458 1461 1465 1468 1467 1464 1465 1467 1469 1471 1474 1473 1473 1470 1468 1463 1461 1461 1468 1474 1486 1482 1477 1451 1444 1443 1443 1449 1432 1431 1433
1435 1438 1441 1445 1449 1453 1455 1456 1459 1460 1457 1453 1452 1453 1456 1457 1460 1462 1460 1463 1468 1468 1470 1477 1475 1473 1467 1470 1464 1460 1471 1474 1472 1471 1473 1463 1446 1441 1443 1452 1447 1430 1431 1432
1427 1430 1434 1438 1442 1446 1450 1450 1454 1458 1455 1452 1451 1448 1450 1452 1453 1458 1457 1463 1463 1465 1471 1474 1474 1473 1467 1466 1459 1457 1465 1474 1469 1469 1468 1463 1446 1443 1446 1439 1431 1431 1431 1432
1420 1423 1427 1431 1435 1440 1444 1446 1449 1452 1452 1448 1447 1446 1447 1447 1449 1451 1453 1453 1454 1456 1466 1468 1468 1468 1465 1463 1462 1451 1459 1455 1455 1461 1456 1446 1443 1444 1439 1436 1434 1432 1430 1430
1412 1416 1420 1425 1429 1434 1438 1442 1446 1449 1448 1446 1443 1441 1443 1445 1446 1448 1448 1451 1452 1454 1456 1461 1463 1463 1462 1457 1456 1453 1449 1449 1455 1456 1441 1442 1438 1436 1433 1432 1431 1430 1429 1429
1404 1409 1414 1419 1424 1429 1434 1436 1440 1443 1442 1441 1439 1437 1440 1443 1444 1446 1446 1448 1450 1453 1456 1459 1460 1461 1458 1457 1453 1454 1449 1449 1447 1446 1439 1437 1431 1429 1428 1426 1428 1427 1426 1427
1397 1402 1407 1413 1419 1425 1430 1433 1434 1438 1442 1436 1435 1436 1438 1440 1442 1444 1444 1448 1449 1452 1456 1458 1458 1456 1456 1452 1452 1446 1443 1442 1446 1440 1432 1433 1429 1424 1424 1423 1424 1425 1425 1426
1393 1397 1402 1409 1415 1422 1426 1428 1425 1430 1437 1434 1436 1434 1434 1436 1439 1441 1443 1446 1449 1450 1451 1453 1451 1450 1452 1452 1445 1432 1432 1431 1429 1427 1427 1426 1425 1422 1421 1420 1421 1422 1423 1424
1390 1394 1400 1406 1412 1416 1416 1417 1417 1423 1430 1431 1433 1431 1432 1434 1437 1440 1442 1444 1446 1447 1449 1447 1448 1448 1448 1445 1432 1424 1425 1424 1423 1423 1424 1421 1422 1420 1418 1417 1417 1419 1421 1423
1388 1394 1400 1406 1412 1416 1416 1416 1416 1421 1427 1431 1433 1432 1431 1433 1435 1437 1439 1441 1443 1443 1443 1443 1443 1445 1444 1430 1413 1415 1416 1416 1417 1417 1417 1415 1414 1415 1415 1414 1414 1416 1419 1421
1388 1394 1400 1403 1409 1408 1409 1416 1418 1422 1427 1425 1428 1432 1438 1431 1433 1435 1438 1439 1440 1440 1437 1437 1439 1436 1428 1410 1410 1407 1408 1410 1409 1410 1410 1410 1408 1408 1410 1411 1412 1414 1417 1420
1390 1393 1392 1397 1400 1407 1411 1417 1420 1423 1423 1424 1427 1428 1432 1431 1434 1436 1438 1436 1435 1433 1430 1431 1429 1415 1407 1405 1402 1401 1400 1402 1405 1405 1404 1403 1403 1405 1408 1410 1413 1415 1417 1420
1388 1389 1390 1396 1401 1407 1411 1418 1421 1424 1425 1425 1426 1426 1426 1429 1432 1433 1434 1431 1431 1426 1422 1424 1417 1407 1399 1395 1396 1393 1391 1394 1397 1399 1398 1398 1400 1403 1406 1410 1414 1416 1417 1419
1384 1387 1395 1399 1403 1407 1414 1419 1422 1423 1424 1421 1420 1421 1424 1426 1427 1429 1431 1428 1424 1414 1414 1415 1407 1397 1394 1392 1392 1391 1391 1392 1394 1395 1396 1398 1400 1402 1406 1409 1411 1415 1417 1419
1391 1395 1399 1403 1409 1412 1417 1423 1420 1418 1414 1415 1418 1421 1422 1424 1425 1425 1426 1423 1418 1414 1410 1404 1399 1396 1394 1394 1394 1393 1394 1395 1395 1395 1395 1396 1399 1401 1404 1408 1411 1414 1416 1419
1393 1395 1404 1408 1411 1410 1410 1410 1410 1410 1411 1412 1413 1415 1417 1419 1421 1420 1420 1416 1414 1410 1414 1399 1398 1397 1396 1396 1396 1396 1395 1396 1396 1396 1397 1399 1400 1402 1406 1409 1412 1414 1416 1418
1392 1396 1407 1406 1404 1404 1405 1406 1407 1408 1409 1410 1412 1414 1415 1415 1418 1416 1415 1413 1411 1408 1401 1398 1397 1397 1396 1396 1396 1397 1397 1397 1398 1398 1400 1401 1403 1405 1407 1410 1413 1415 1416 1419
1397 1400 1405 1404 1405 1406 1406 1406 1406 1408 1409 1410 1410 1408 1407 1405 1407 1409 1405 1407 1404 1398 1396 1396 1397 1397 1397 1397 1398 1398 1398 1399 1400 1401 1403 1404 1406 1408 1409 1411 1413 1415 1417 1419
1400 1403 1402 1403 1404 1404 1405 1405 1406 1407 1408 1408 1407 1400 1396 1399 1401 1403 1400 1399 1394 1394 1395 1396 1397 1397 1397 1397 1398 1398 1399 1400 1401 1403 1404 1406 1408 1409 1411 1412 1414 1416 1418 1420